Location: El Águila
(10.4167°N, 66.7167°W)
Time: 23:11:51
(UTC+00:00)

SWIFT - Pass Details

Date: 06 April 2023
Orbit: 527 x 541 km, 20.6° (Epoch: 28 May)

Event Time Altitude Azimuth Distance (km) Brightness Sun altitude
Rises 00:00:46 0° 289° (WNW) 2,638 7.3 -21.1°
Reaches altitude 10° 00:03:28 10° 306° (NW) 1,750 5.8 -21.7°
Maximum altitude 00:06:32 20° 355° (N) 1,231 4.2 -22.4°
Enters shadow 00:07:22 19° 12° (NNE) 1,278 4.1 -22.6°
